Regional Weather Roundup
Issued by NWS

Home | Current Version | Previous Version | Text Only | Print | Product List | Glossary On
Versions: 1 2 3 4 5 6 7 8 9 10 11 12 13 14 15 16 17 18 19 20 21 22 23 24 25 26 27
000
ASUS42 KKEY 281410
RWRKEY

FLORIDA REGIONAL WEATHER ROUNDUP FOR THE FLORIDA KEYS
NATIONAL WEATHER SERVICE KEY WEST FLORIDA
1000 AM EDT WED SEP 28 2016

...SOUTH FLORIDA AND THE KEYS...

CITY           SKY/WX    TMP DP  RH WIND       PRES   REMARKS
FORT MYERS     SUNNY     83  74  74 S5        30.01R
SW REGIONAL AP SUNNY     83  74  74 SE3       30.02R
NAPLES         MOSUNNY   84  76  76 CALM      30.02R HX  93
MIAMI          MOSUNNY   83  75  77 S7        30.03R HX  90
WEST KENDALL   SUNNY     80  76  87 S5        30.03R
HOMESTEAD      SUNNY     83  76  79 SW6       30.03R HX  90
MARATHON       PTSUNNY   85  77  77 VRB3      30.03R HX  95
BOCA CHICA NAS MOSUNNY   84  74  71 S5        30.04R HX  91
KEY WEST INTL  SUNNY     84  75  74 SW3       30.04R HX  92

...INTERNATIONAL WEATHER...

CITY           SKY/WX    TMP DP  RH WIND       PRES   REMARKS
NASSAU BAHAMAS MOSUNNY   88  75  66 CALM      30.07R HX  97
CANCUN MEXICO  PTSUNNY   86  77  74 E7        30.00R HX  97
COZUMEL MEXICO PTSUNNY   81  75  83 CALM      29.98R

ADJACENT COASTAL WATERS...

STATION/POSITION TIME  SKY/WX   TEMP    WIND        PRES    WAVE
                                AIR SEA DIR/SP/G            HT/PER
                 (UTC)          (F)     (DEG/KT/KT) (MB)    (FT/S)
PULASKI SHOAL LI 1400            85     240/  2/  2 1017.3R
SAND KEY         1350            83     250/  2/  4 1017.7R
LONG KEY         1300            83 82  260/  5/  6 1016.8R
FOWEY ROCKS      1300            84 84  240/  6/  6 1017.2R

$$




USA.gov is the U.S. government's official web portal to all federal, state and local government web resources and services.